Regional Weather Roundup
Issued by NWS

Home | Current Version | Previous Version | Graphics & Text | Print | Product List | Glossary On
Versions: 1 2 3 4 5 6 7 8 9 10 11 12 13 14 15 16 17 18 19 20 21 22 23 24 25 26 27 28 29 30 31 32 33 34 35 36 37 38 39 40 41 42 43 44 45 46 47 48 49 50
870
ASUS43 KIND 310109
RWRIN

WEATHER ROUNDUP FOR INDIANA
NATIONAL WEATHER SERVICE INDIANAPOLIS IN
900 PM EDT THU MAR 30 2017

NOTE: "FAIR" INDICATES FEW OR NO CLOUDS BELOW 12,000 FEET WITH NO
SIGNIFICANT WEATHER AND/OR OBSTRUCTIONS TO VISIBILITY.

* - STATION DOES NOT REPORT WEATHER SUCH AS PRECIPITATION OR FOG.

+ - STATION NOT QUALITY CONTROLLED BY THE NATIONAL WEATHER SERVICE.
    USE DATA WITH CAUTION...ESPECIALLY DEWPOINT AND RELATIVE
    HUMIDITY OBSERVATIONS.

INZ001>003-010>013-019-020-310200-
NORTHWEST INDIANA

CITY           SKY/WX    TMP DP  RH WIND       PRES   REMARKS
GARY /AIRPORT/ LGT RAIN  45  43  93 N8        29.60F
KNOX *+        CLOUDY    46  36  66 E10       29.59F
LA PORTE +     CLOUDY    45  44  97 E14       29.60F
MICHIGAN CITY+ DRIZZLE   45  45 100 E3        29.61F
MONTICELLO +   LGT RAIN  53  52  95 E5        29.56F
RENSSELAER +   CLOUDY    50  50 100 E9        29.56F FOG
VALPARAISO     CLOUDY    47  46  97 E13       29.58F FOG

$$

LMZ046-743>745-310200-
SOUTHERN LAKE MICHIGAN

STATION/POSITION TIME  TEMP    WIND        PRES    WAVE
                       AIR SEA DIR/SP/G            HT
                 (UTC) (F)     (DEG/KT/KT) (MB)    (FT)
BURNS HARBOR     0040   47      80/ 10/ 13 1003.0S
MICHIGAN CITY    0040   46      70/  7/  9   N/A

$$

INZ004-005-014>016-021>024-310200-
NORTH CENTRAL INDIANA

CITY           SKY/WX    TMP DP  RH WIND       PRES   REMARKS
ELKHART        CLOUDY    43  41  93 E8        29.65R
GOSHEN         LGT RAIN  44  40  85 E8        29.66R
LOGANSPORT +   LGT RAIN  52  52 100 E7        29.61F
PERU/GRISSOM   DRIZZLE   54  54 100 CALM      29.60S
ROCHESTER +    LGT RAIN  52  52 100 E7        29.62F
SOUTH BEND     LGT RAIN  43  32  65 E10       29.64R
WARSAW +       LGT RAIN  45  45 100 E3        29.66R

$$

INZ006>009-017-018-025>027-310200-
NORTHEAST INDIANA

CITY           SKY/WX    TMP DP  RH WIND       PRES   REMARKS
ANGOLA *+      CLOUDY    41  34  75 E5        29.66R
AUBURN +       RAIN      45  41  87 CALM      29.68R
FORT WAYNE     TSTM      47  45  93 NE5       29.66S FOG
HUNTINGTON +   RAIN      47  46  95 E5        29.64F
KENDALLVILLE + CLOUDY    42  42  99 E5        29.67R

$$

INZ028-029-035-036-043>045-051>053-310200-
WEST CENTRAL INDIANA

CITY           SKY/WX    TMP DP  RH WIND       PRES   REMARKS
CRAWFORDSVL +  CLOUDY    53  53 100 E7        29.59F
GREENCASTLE +  CLOUDY    54  54 100 E7        29.59F
LAFAYETTE      CLOUDY    55  55 100 SE6       29.57F
TERRE HAUTE    CLOUDY    57  55  93 NE3       29.58S

$$

INZ030>032-037>040-046>048-054>057-064-065-310200-
CENTRAL INDIANA

CITY           SKY/WX    TMP DP  RH WIND       PRES   REMARKS
CP ATTERBURY + CLOUDY    61  54  77 W8        29.62S
COLUMBUS       MOCLDY    63  55  77 W15       29.62R
FISHERS *+     CLOUDY    54  54 100 CALM      29.64R
FRANKFORT +    RAIN      57  55  95 SE6       29.62S
GREENWOOD *+   CLOUDY    58  57  96 CALM      29.64S
INDIANAPOLIS   LGT RAIN  57  55  93 S6        29.63R
-EAGLE CREEK   LGT RAIN  57  54  89 CALM      29.62F
KOKOMO +       RAIN      56  54  93 S7        29.65R
MARION +       LGT RAIN  55  53  91 SW6       29.65R
MT COMFORT *+  CLOUDY    55  54  94 NW3       29.64S
SHELBYVILLE    LGT RAIN  61  54  77 W10       29.63R
ZIONSVILLE +   HVY RAIN  54  53  95 NW3       29.62F

$$

INZ033-034-041-042-049-050-058-059-310200-
EAST CENTRAL INDIANA

CITY           SKY/WX    TMP DP  RH WIND       PRES   REMARKS
MUNCIE         LGT RAIN  57  54  89 N6        29.64S
RICHMOND +     CLOUDY    61  54  77 NW21G26   29.64R

$$

INZ060-061-067>069-081>083-085>088-310200-
SOUTHWEST INDIANA

CITY           SKY/WX    TMP DP  RH WIND       PRES   REMARKS
EVANSVILLE     RAIN      61  56  83 SW10G22   29.59R
HUNTINGBURG *+ RAIN      60  56  86 S17G23    29.62R
WASHINGTON +   CLOUDY    60  55  85 CALM      29.57F

$$

INZ062-063-066-070>080-084-089>092-310200-
SOUTH CENTRAL AND SOUTHEAST INDIANA

CITY           SKY/WX    TMP DP  RH WIND       PRES   REMARKS
BEDFORD +      CLOUDY   N/A N/A N/A SW15G28   29.63
BLOOMINGTON    RAIN      59  54  83 S13G18    29.61F
MADISON *+     CLOUDY    66  52  59 SW3       29.62S
NORTH VERNON + CLOUDY    70  52  52 S5        29.60R
SEYMOUR +      CLOUDY    64  54  68 W14G21    29.61R

$$





USA.gov is the U.S. government's official web portal to all federal, state and local government web resources and services.